Location: Newark
(48.5156°N, 1.8989°W)
Time: 20:51:48
(UTC+00:00)

Envisat - Visible Passes

Search period start: 25 September 2020 00:00
Search period end: 05 October 2020 00:00
Orbit: 764 x 766 km, 98.1° (Epoch: 25 September)

Date Brightness Start Highest point End Pass type
(mag) Time Alt. Az. Time Alt. Az. Time Alt. Az.
25 Sep 6.0 05:10:34 10° NE 05:14:24 21° E 05:18:12 10° SE visible
27 Sep 6.1 18:34:25 10° SW 18:38:00 19° W 18:41:35 10° NW visible
28 Sep 6.1 04:59:36 10° NE 05:02:54 17° E 05:06:10 10° SE visible
29 Sep 6.6 19:02:19 10° WSW 19:03:48 11° W 19:05:17 10° WNW visible
30 Sep 5.5 05:24:16 10° NE 05:28:37 28° E 05:32:57 10° SSE visible
30 Sep 5.8 18:22:29 10° SW 18:26:30 23° W 18:30:34 10° NW visible
01 Oct 6.3 04:48:51 10° ENE 04:51:23 14° E 04:53:54 10° ESE visible
02 Oct 6.3 18:49:36 10° WSW 18:52:16 14° W 18:54:56 10° NW visible
03 Oct 5.8 05:13:09 10° NE 05:17:09 23° E 05:21:07 10° SE visible
03 Oct 5.4 18:10:40 10° SSW 18:15:02 29° W 18:19:27 10° NW visible
04 Oct 6.6 04:38:40 10° ENE 04:39:51 11° E 04:41:02 10° E visible
